Portland, OR (97201)

6:55 PM PST on February 10, 2016 (GMT -0800)
Portland - West Hills | | Change Station
CLOSE
Current Station
Personal Weather Station
Location: Portland, OR
Elevation: 820 ft
Nearby Weather Stations

Elev 820 ft 45.49 °N, 122.69 °W | Updated 37 seconds ago

Overcast
Overcast
55.9 °F
Feels Like 55.9 °F
N
0.0
Wind Variable Wind from WSW
Gusts 0.0 mph

Today
High -- | Low -- °F
--% Chance of Precip.
Yesterday
High -- | Low -- °F
Precip. -- in
Pressure 30.30 in
Visibility 10.0 miles
Clouds Mostly Cloudy 3500 ft
Overcast 5000 ft
Dew Point 50 °F
Humidity 80%
Rainfall 0.00 in
Snow Depth Not available.
7:20 AM 5:30 PM
Waxing Crescent, 9% visible
METAR KPDX 110153Z 11004KT 10SM BKN035 OVC050 13/07 A3030 RMK AO2 SLP259 T01280067
Pressure 30.30 in
Visibility 10.0 miles
Clouds Mostly Cloudy 3500 ft
Overcast 5000 ft
Dew Point 50 °F
Humidity 80%
Rainfall 0.00 in
Snow Depth Not available.
7:20 AM 5:30 PM
Waxing Crescent, 9% visible
METAR KPDX 110153Z 11004KT 10SM BKN035 OVC050 13/07 A3030 RMK AO2 SLP259 T01280067

10-Day Weather Forecast

Almanac

Astronomy

Feb. 10, 2016 Rise Set
Actual Time
Civil Twilight
Nautical Twilight
Astronomical Twilight
Moon
Length of Visible Light
Length of Day
Tomorrow will be .
, % of the Moon is Illuminated

Today's Extremes

State Highs State Lows

Community

WunderPhotos

Upload Photos

1,891,986 photos uploaded!

WunderBlog® & News

Nearby

Air Quality

  Air Quality AQ Index Pollutant
Not available.

Snow Depth

Station Depth Elevation

Earthquake Activity

City Distance Mag. Time & Date
Minimum magnitude displayed is 2.5.

Coastal Water Temperatures

Place Temperature

Stations

Nearby Weather Stations

Station Location Temp. Windchill Dew Point Humidity Wind Precip. Elev Updated Type
                   

Watches & Warnings

There are currently no watches in effect.